Flight Track Log - Related Links

Times and Time Zones

All times are in EDT time to prevent confusion due to time zone crossing. See the EGF3246 flight status page for this flight to view local times or setup timezone preferences in your user account.


Time Position Orientation Groundspeed Altitude Reporting Facility
EDT Latitude Longitude Course Direction KTS MPH feet Rate Location/Type
Thu 07:08:48 PM 40.5664 -89.7925 223° Southwest 229 264 5,000  Level Chicago Center
Thu 07:09:50 PM 40.5158 -89.8514 222° Southwest 235 270 7,900 2,516 Climbing Chicago Center
Thu 07:10:52 PM 40.4633 -89.9139 222° Southwest 249 287 10,200 1,632 Climbing Chicago Center
Thu 07:11:55 PM 40.4031 -89.9839 221° Southwest 283 326 11,300 1,200 Climbing Chicago Center
Thu 07:12:57 PM 40.3244 -90.0753 222° Southwest 315 362 12,700 1,355 Climbing Chicago Center
Thu 07:13:00 PM 40.2370 -90.1787 224° Southwest  Level FlightAware Approximate
Thu 07:13:59 PM 40.2572 -90.1547 222° Southwest 323 372 14,100  Level Chicago Center
Thu 07:15:01 PM 40.1894 -90.2325 221° Southwest 323 372 15,600 1,452 Climbing Chicago Center
Thu 07:16:03 PM 40.1225 -90.3094 221° Southwest 320 368 17,100 1,258 Climbing Chicago Center
Thu 07:17:05 PM 40.0556 -90.3847 221° Southwest 318 366 18,200 1,210 Climbing Chicago Center
Thu 07:18:07 PM 39.9908 -90.4608 222° Southwest 314 361 19,600 1,440 Climbing Chicago Center
Thu 07:19:10 PM 39.9125 -90.5519 222° Southwest 313 360 21,200 1,392 Climbing Chicago Center
Thu 07:20:12 PM 39.8422 -90.6317 221° Southwest 324 373 22,500 1,152 Climbing Chicago Center
Thu 07:21:15 PM 39.7789 -90.7050 222° Southwest 317 365 23,600 1,056 Climbing Kansas City Center
Thu 07:22:17 PM 39.7131 -90.7783 221° Southwest 317 365 24,700 1,065 Climbing Kansas City Center
Thu 07:23:19 PM 39.6447 -90.8553 221° Southwest 320 368 25,800 1,113 Climbing Kansas City Center
Thu 07:24:21 PM 39.5639 -90.9478 221° Southwest 322 371 27,000 1,016 Climbing Kansas City Center
Thu 07:25:23 PM 39.4944 -91.0253 221° Southwest 325 374 27,900 919 Climbing Kansas City Center
Thu 07:26:25 PM 39.4264 -91.1025 221° Southwest 325 374 28,900 919 Climbing Kansas City Center
Thu 07:27:27 PM 39.3564 -91.1792 220° Southwest 326 375 29,800 919 Climbing Kansas City Center
Thu 07:28:29 PM 39.2869 -91.2561 221° Southwest 329 379 30,800 1,065 Climbing Kansas City Center
Thu 07:29:31 PM 39.2042 -91.3500 221° Southwest 329 379 32,000 1,016 Climbing Kansas City Center
Thu 07:30:33 PM 39.1344 -91.4272 221° Southwest 329 379 32,900 919 Climbing Kansas City Center
Thu 07:31:35 PM 39.0633 -91.5053 220° Southwest 330 380 33,900 528 Climbing Kansas City Center
Thu 07:32:38 PM 38.9942 -91.5828 221° Southwest 333 383 34,000 48 Climbing Kansas City Center
Thu 07:33:40 PM 38.9189 -91.6656 221° Southwest 350 403 34,000  Level Kansas City Center
Thu 07:34:42 PM 38.8358 -91.7572 221° Southwest 370 426 34,000 435 Level Kansas City Center
Thu 07:35:44 PM 38.7417 -91.8628 221° Southwest 372 428 34,900 871 Climbing Kansas City Center
Thu 07:36:46 PM 38.6653 -91.9447 220° Southwest 363 418 35,800 532 Climbing Kansas City Center
Thu 07:37:48 PM 38.5906 -92.0253 220° Southwest 357 411 36,000 97 Climbing Kansas City Center
Thu 07:38:50 PM 38.5125 -92.1089 220° Southwest 361 415 36,000  Level Kansas City Center
Thu 07:39:52 PM 38.4356 -92.1928 221° Southwest 365 420 36,000  Level Kansas City Center
Thu 07:40:54 PM 38.3578 -92.2778 221° Southwest 365 420 36,000  Level Kansas City Center
Thu 07:41:56 PM 38.2667 -92.3742 220° Southwest 363 418 36,000  Level Kansas City Center
Thu 07:42:58 PM 38.1911 -92.4544 220° Southwest 359 413 36,000  Level Kansas City Center
Thu 07:44:00 PM 38.1222 -92.5292 220° Southwest 356 410 36,000  Level Kansas City Center
Thu 07:45:02 PM 38.0469 -92.6089 220° Southwest 356 410 36,000  Level Kansas City Center
Thu 07:46:04 PM 37.9719 -92.6889 220° Southwest 356 410 36,000  Level Kansas City Center
Thu 07:47:06 PM 37.8778 -92.7872 220° Southwest 355 409 36,000  Level Kansas City Center
Thu 07:48:08 PM 37.8028 -92.8667 220° Southwest 354 407 36,000  Level Kansas City Center
Thu 07:49:10 PM 37.7275 -92.9458 220° Southwest 354 407 36,000  Level Kansas City Center
Thu 07:50:12 PM 37.6517 -93.0239 219° Southwest 353 406 36,000  Level Kansas City Center
Thu 07:51:15 PM 37.5744 -93.1022 219° Southwest 353 406 36,000  Level Kansas City Center
Thu 07:52:17 PM 37.4978 -93.1864 221° Southwest 360 414 36,000  Level Kansas City Center
Thu 07:53:19 PM 37.4183 -93.2703 220° Southwest 367 422 36,000  Level Kansas City Center
Thu 07:54:21 PM 37.3167 -93.3628 216° Southwest 371 427 36,000  Level Kansas City Center
Thu 07:55:23 PM 37.2253 -93.4264 209° Southwest 372 428 36,000  Level Kansas City Center
Thu 07:56:25 PM 37.1367 -93.4928 211° Southwest 372 428 36,000  Level Kansas City Center
Thu 07:57:27 PM 37.0458 -93.5583 210° Southwest 372 428 36,000  Level Kansas City Center
Thu 07:58:29 PM 36.9536 -93.6219 209° Southwest 373 429 36,000  Level Kansas City Center
Thu 07:59:31 PM 36.8594 -93.6867 209° Southwest 377 434 36,000  Level Kansas City Center
Thu 08:00:33 PM 36.7683 -93.7522 210° Southwest 381 438 36,000  Level Kansas City Center
Thu 08:01:35 PM 36.6653 -93.8250 210° Southwest 381 438 36,000  Level Kansas City Center
Thu 08:02:22 PM 36.5936 -93.8778 211° Southwest 382 440 36,000  Level Memphis Center
Thu 08:03:24 PM 36.5003 -93.9417 209° Southwest 382 440 36,000  Level Memphis Center
Thu 08:04:26 PM 36.3975 -93.9917 201° Southwest 386 444 36,000  Level Memphis Center
Thu 08:05:28 PM 36.2975 -94.0411 202° Southwest 387 445 36,000  Level Memphis Center
Thu 08:06:30 PM 36.1756 -94.1028 202° Southwest 388 447 36,000  Level Memphis Center
Thu 08:07:32 PM 36.0747 -94.1539 202° Southwest 388 447 36,000  Level Memphis Center
Thu 08:08:34 PM 35.9725 -94.2042 202° Southwest 389 448 36,000  Level Memphis Center
Thu 08:09:36 PM 35.8706 -94.2561 202° Southwest 389 448 36,000  Level Memphis Center
Thu 08:10:39 PM 35.7697 -94.3056 202° Southwest 389 448 36,000  Level Memphis Center
Thu 08:11:41 PM 35.6678 -94.3558 202° Southwest 390 449 36,000  Level Memphis Center
Thu 08:12:43 PM 35.5656 -94.4069 202° Southwest 396 456 36,000  Level Memphis Center
Thu 08:13:45 PM 35.4450 -94.4656 202° Southwest 387 445 36,000  Level Memphis Center
Thu 08:14:47 PM 35.3442 -94.5158 202° Southwest 388 447 36,000  Level Memphis Center
Thu 08:15:49 PM 35.2425 -94.5656 202° Southwest 390 449 36,000  Level Memphis Center
Thu 08:16:51 PM 35.1425 -94.6147 202° Southwest 390 449 36,000  Level Memphis Center
Thu 08:17:53 PM 35.0372 -94.6656 202° Southwest 390 449 36,000  Level Memphis Center
Thu 08:18:55 PM 34.9500 -94.7467 217° Southwest 395 455 36,000  Level Memphis Center
Thu 08:19:49 PM 34.8728 -94.8286 221° Southwest 390 449 36,000  Level Fort Worth Center
Thu 08:20:51 PM 34.7908 -94.9172 222° Southwest 391 450 36,000  Level Fort Worth Center
Thu 08:21:53 PM 34.7086 -95.0044 221° Southwest 394 453 36,000 -290 Level Fort Worth Center
Thu 08:22:55 PM 34.6100 -95.1092 221° Southwest 394 453 35,400 -484 Descending Fort Worth Center
Thu 08:23:57 PM 34.5289 -95.1961 221° Southwest 394 453 35,000 -576 Descending Fort Worth Center
Thu 08:25:00 PM 34.4722 -95.3028 237° Southwest 386 444 34,200 -864 Descending Fort Worth Center
Thu 08:26:02 PM 34.4267 -95.4161 244° Southwest 381 438 33,200 -968 Descending Fort Worth Center
Thu 08:27:04 PM 34.4058 -95.5336 258° West 372 428 32,200 -1,016 Descending Fort Worth Center
Thu 08:28:06 PM 34.3964 -95.6689 265° West 367 422 31,100 -1,016 Descending Fort Worth Center
Thu 08:29:08 PM 34.3589 -95.7764 247° West 369 425 30,100 -1,113 Descending Fort Worth Center
Thu 08:30:10 PM 34.2758 -95.8358 211° Southwest 352 405 28,800 -1,597 Descending Fort Worth Center
Thu 08:31:12 PM 34.1858 -95.8764 200° South 348 400 26,800 -2,032 Descending Fort Worth Center
Thu 08:32:14 PM 34.0875 -95.9364 207° Southwest 345 397 24,600 -1,790 Descending Fort Worth Center
Thu 08:33:16 PM 34.0042 -95.9819 204° Southwest 335 386 23,100 -1,440 Descending Fort Worth Center
Thu 08:34:19 PM 33.9142 -96.0317 205° Southwest 351 404 21,600 -1,488 Descending Fort Worth Center
Thu 08:35:21 PM 33.8075 -96.0886 204° Southwest 360 414 20,000 -1,548 Descending Fort Worth Center
Thu 08:36:23 PM 33.7161 -96.1433 206° Southwest 342 394 18,400 -1,403 Descending Fort Worth Center
Thu 08:37:25 PM 33.6408 -96.2053 214° Southwest 327 376 17,100 -1,355 Descending Fort Worth Center
Thu 08:38:27 PM 33.5731 -96.2581 213° Southwest 293 337 15,600 -1,258 Descending Fort Worth Center
Thu 08:39:29 PM 33.5031 -96.3153 214° Southwest 283 326 14,500 -1,016 Descending Fort Worth Center
Thu 08:40:31 PM 33.4394 -96.3656 213° Southwest 277 319 13,500 -968 Descending Fort Worth Center
Thu 08:41:33 PM 33.3728 -96.4261 217° Southwest 280 322 12,500 -968 Descending Fort Worth Center
Thu 08:42:35 PM 33.3203 -96.4911 226° Southwest 275 316 11,500 -720 Descending Fort Worth Center
Thu 08:43:38 PM 33.2636 -96.5594 225° Southwest 272 313 11,000 -240 Descending Fort Worth Center
Thu 08:44:40 PM 33.2097 -96.6228 225° Southwest 272 313 11,000  Level Fort Worth Center
Thu 08:45:42 PM 33.1511 -96.6928 225° Southwest 276 318 11,000  Level Fort Worth Center
Thu 08:46:44 PM 33.0956 -96.7581 225° Southwest 278 320 11,000  Level Fort Worth Center
Thu 08:47:46 PM 33.0367 -96.8281 225° Southwest 281 323 11,000  Level Fort Worth Center
Thu 08:48:48 PM 32.9872 -96.8872 225° Southwest 253 291 11,000 -194 Level Fort Worth Center
Thu 08:49:50 PM 32.9186 -96.9042 192° South 249 287 10,600 -871 Descending Fort Worth Center
Thu 08:50:52 PM 32.8531 -96.9053 181° South 237 273 9,200 -1,440 Descending Fort Worth Center
Thu 08:51:55 PM 32.7833 -96.9072 181° South 233 268 7,600 -1,056 Descending Fort Worth Center
Thu 08:52:57 PM 32.7197 -96.9094 182° South 228 262 7,000 -290 Descending Fort Worth Center
Thu 08:53:59 PM 32.6553 -96.9103 181° South 228 262 7,000  Level Fort Worth Center
Thu 08:55:01 PM 32.5919 -96.9331 197° South 220 253 7,000 -387 Level Fort Worth Center
Thu 08:56:03 PM 32.5350 -96.9636 204° Southwest 222 255 6,200 -484 Descending Fort Worth Center
Thu 08:57:05 PM 32.5486 -97.0356 283° West 216 249 6,000 -242 Descending Fort Worth Center
Thu 08:58:07 PM 32.6161 -97.0283 North 241 277 5,700 -871 Descending Fort Worth Center
Thu 08:59:09 PM 32.6897 -97.0275 North 244 281 4,200 -1,355 Descending Fort Worth Center
Thu 09:00:11 PM 32.7564 -97.0278 360° North 243 280 2,900 -1,113 Descending Fort Worth Center
Thu 09:01:13 PM 32.8203 -97.0275 360° North 232 267 1,900 -960 Descending Fort Worth Center
Thu 09:02:16 PM 32.8678 -97.0275 360° North 153 176 900 -952 Descending Fort Worth Center

Login

Don't have an account? Register now (free) for customized features, flight alerts, and more!